TimeCST,TemperatureF,Dew PointF,Humidity,Sea Level PressureIn,VisibilityMPH,Wind Direction,Wind SpeedMPH,Gust SpeedMPH,PrecipitationIn,Events,Conditions,WindDirDegrees,DateUTC
12:56 AM,16.2,15.1,95,30.19,10.0,Calm,Calm,-,N/A,,Clear,0,2013-03-04 06:56:00
1:56 AM,17.1,15.1,92,30.19,10.0,Calm,Calm,-,N/A,,Clear,0,2013-03-04 07:56:00
3:56 AM,16.2,14.0,91,30.20,9.0,Calm,Calm,-,N/A,,Clear,0,2013-03-04 09:56:00
4:56 AM,14.0,12.0,92,30.23,10.0,Calm,Calm,-,N/A,,Clear,0,2013-03-04 10:56:00
6:56 AM,19.0,18.1,96,30.23,9.0,Calm,Calm,-,N/A,,Clear,0,2013-03-04 12:56:00
7:56 AM,29.1,21.0,72,30.23,10.0,Calm,Calm,-,N/A,,Partly Cloudy,0,2013-03-04 13:56:00
8:56 AM,34.0,21.0,59,30.22,10.0,North,9.2,-,N/A,,Clear,350,2013-03-04 14:56:00
9:56 AM,37.9,20.1,49,30.20,10.0,NNW,10.4,-,N/A,,Partly Cloudy,340,2013-03-04 15:56:00
10:56 AM,39.9,19.0,43,30.19,10.0,NNW,6.9,-,N/A,,Scattered Clouds,340,2013-03-04 16:56:00
11:56 AM,41.9,18.1,38,30.15,10.0,NNW,5.8,-,N/A,,Mostly Cloudy,330,2013-03-04 17:56:00
12:56 PM,45.0,17.1,33,30.12,10.0,North,6.9,-,N/A,,Partly Cloudy,360,2013-03-04 18:56:00
1:56 PM,46.9,21.0,36,30.09,10.0,WNW,9.2,-,N/A,,Mostly Cloudy,300,2013-03-04 19:56:00
2:56 PM,47.8,23.0,38,30.06,10.0,NW,9.2,-,N/A,,Clear,320,2013-03-04 20:56:00
3:56 PM,50.0,24.1,36,30.04,10.0,WNW,9.2,-,N/A,,Clear,300,2013-03-04 21:56:00
4:56 PM,50.0,25.2,38,30.03,10.0,WNW,6.9,-,N/A,,Clear,300,2013-03-04 22:56:00
5:56 PM,47.8,25.2,41,30.01,10.0,Variable,4.6,-,N/A,,Clear,0,2013-03-04 23:56:00
6:56 PM,46.9,26.1,44,30.00,10.0,NW,10.4,-,N/A,,Partly Cloudy,320,2013-03-05 00:56:00
7:56 PM,45.0,28.0,52,30.04,10.0,North,4.6,-,N/A,,Overcast,350,2013-03-05 01:56:00
8:56 PM,45.9,26.1,46,30.04,10.0,NNW,9.2,-,N/A,,Clear,330,2013-03-05 02:56:00
9:56 PM,45.0,27.1,50,30.04,10.0,NNW,3.5,-,N/A,,Partly Cloudy,330,2013-03-05 03:56:00
10:56 PM,43.9,30.0,58,30.02,10.0,North,8.1,-,0.00,Rain,Light Rain,10,2013-03-05 04:56:00
11:56 PM,43.9,32.0,63,29.99,10.0,North,9.2,18.4,0.00,Rain,Light Rain,350,2013-03-05 05:56:00